Regional Weather Roundup
Issued by NWS

Home | Current Version | Previous Version | Text Only | Print | Product List | Glossary On
Versions: 1 2 3 4 5 6 7 8 9 10 11 12 13 14 15 16 17 18 19 20 21 22 23 24 25 26 27 28 29 30 31 32 33 34 35 36 37 38 39 40 41 42 43 44 45 46 47 48 49 50
000
ASHW40 PHFO 111343
RWRHI

WEATHER ROUNDUP FOR HAWAII
NATIONAL WEATHER SERVICE HONOLULU HI
300 AM HST MON DEC 11 2017

THIS IS AN AUTOMATED REPORT THAT HAS NOT BEEN QUALITY CONTROLLED.

NOTE..."FAIR" INDICATES FEW OR NO CLOUDS BELOW 12,000 FEET WITH NO
SIGNIFICANT WEATHER AND/OR OBSTRUCTIONS TO VISIBILITY.

* - THESE SITES REPORT LIMITED FIELDS
# - BUOY DATA PROVIDED BY PACIFIC ISLANDS OCEAN OBSERVING SYSTEM.

HIZ001>004-111400-
KAUAI-NIIHAU-

CITY           SKY/WX    TMP DP  RH WIND       PRES   REMARKS
LIHUE APT      PTCLDY    62  62 100 NW6       29.97F
PORT ALLEN*      N/A     64 N/A N/A N5          N/A
POIPU*           N/A     63 N/A N/A N2          N/A
PRINCEVILLE*   NOT AVBL
KOKOLE POINT*  NOT AVBL
MOLOAA DAIRY*    N/A     68  64  88 W3          N/A
WAIMEA HTS*      N/A    N/A N/A N/A N2          N/A
PUU OPAE*        N/A     61  57  88 NE3         N/A
PUU LUA*       NOT AVBL
MAKAHA RIDGE*    N/A    N/A N/A N/A E1          N/A
$$

HIZ005>011-111400-
OAHU-

CITY           SKY/WX    TMP DP  RH WIND       PRES   REMARKS
HONOLULU       MOCLDY    71  64  78 N3        29.95S
KALAELOA       CLOUDY    68  64  87 NE3       29.96F
KANEOHE MCB    CLOUDY    71  69  93 CALM      29.92F
WHEELER FIELD  CLOUDY    67  66  96 CALM      29.98F
BELLOWS*         N/A    N/A N/A N/A SW2         N/A
KAHUKU*          N/A    N/A N/A N/A SE1         N/A
WHEELER*         N/A    N/A N/A N/A NE3         N/A
WAIANAE HARBOR   N/A    N/A N/A N/A E3          N/A
DILLINGHAM*    NOT AVBL
KAHUKU TRN*      N/A     79  77  94 CALM        N/A
KAWAILOA*        N/A     66  63  88 SE3         N/A
KII*             N/A     70  68  94 SE2         N/A
MAKUA RANGE*     N/A     66  61  82 NW3         N/A
OAHU FOREST NW   N/A     66  61  82 NE2         N/A
SCHOFIELD BRK*   N/A     64  63  94 NE1         N/A
SCHOFIELD S*   NOT AVBL
WAIANAE VLY*     N/A     81  77  89 NW3         N/A
KUAOKALA*        N/A     70  63  78 W2          N/A
HONOULIUULI*   NOT AVBL
MOKUOLOE IS*   NOT AVBL
PALEHUA*         N/A    N/A N/A N/A S2          N/A
WAIAWA PHB*    NOT AVBL
$$

HIZ012>013-111400-
MOLOKAI-

CITY           SKY/WX    TMP DP  RH WIND       PRES   REMARKS
MOLOKAI AIRPT  CLEAR     64  64 100 N3        29.96S
KALAUPAPA      NOT AVBL
MAKAPULAPAI*     N/A     66  64  94 SW3         N/A
MOLOKAI 1*       N/A     66  66 100 CALM        N/A
PUU ALII*        N/A     52  52 100 CALM        N/A
$$

HIZ016-111400-
KAHOOLAWE-

CITY           SKY/WX    TMP DP  RH WIND       PRES   REMARKS
KAHOOLAWE*     NOT AVBL
HAKIOAWA*        N/A     68  65  91 MISG      30.36F
HONOKANAIA*    NOT AVBL
KANELOA*         N/A     70  66  88 NE5       30.01F
KEALIALALO*    NOT AVBL
LUA MAKIKA*    NOT AVBL
$$

HIZ014>015-111400-
LANAI-

CITY           SKY/WX    TMP DP  RH WIND       PRES   REMARKS
LANAI CITY     FAIR      61  60  97 NE8       30.00S
LANAI 1*         N/A     66 N/A N/A E8          N/A
$$

HIZ017>028-111400-
MAUI-

CITY           SKY/WX    TMP DP  RH WIND       PRES   REMARKS
KAHULUI        PTCLDY    65  64  97 SE5       29.94S
KAPALUA-W MAUI NOT AVBL
HANA AIRPORT     N/A     64  64 100 CALM      29.97S
HANA*            N/A     68 N/A N/A S2          N/A
HALEAKALA SUMM   N/A     45  -8  11 S6          N/A
MAALAEA BAY*     N/A     63 N/A N/A N5          N/A
HALEAKALA*     NOT AVBL
KAUPO GAP*     NOT AVBL
KULA 1*          N/A    N/A N/A N/A E3          N/A
$$

HIZ023>026-111400-
BIG ISLAND OF HAWAII COAST AND LOWER SLOPES-

CITY           SKY/WX    TMP DP  RH WIND       PRES   REMARKS
KAILUA KONA    PTCLDY    71  63  75 NE7       29.92S
HILO           PTCLDY    63  54  72 SW10      29.95S
HONOKAA*         N/A     59 N/A N/A VRB1        N/A
KAWAIHAE MWT*    N/A     72 N/A N/A S1          N/A
KAWAIHAE*        N/A     72 N/A N/A SE1       29.93S
SOUTH POINT*     N/A     63 N/A N/A NW10        N/A
UPOLU AIRPORT* NOT AVBL
KAMUELA*       PTSUNNY   54  52  94 E7        30.03F
HAKALAU*         N/A    N/A N/A N/A SW3         N/A
KALOKO-HONOKO*   N/A     70  59  68 NE6       29.92S
PALI 2*          N/A     55  52  88 SW5         N/A
KEALAKOMO*       N/A    N/A N/A N/A VRB6        N/A
KAUPULEHU*       N/A     66  59  77 SE7         N/A
KAPAPALA*        N/A     54  51  88 N5          N/A
LOWER KAHUKU*    N/A    N/A N/A N/A VRB1G7      N/A
PUHE CS*         N/A     72  59  64 E3G9        N/A
PUHO CS*         N/A     67  55  66 E3          N/A
PTA KEAMUKU*     N/A     52  50  93 S6          N/A
WAIKOLOA*        N/A     63  55  77 SE7         N/A
$$

HIZ027>028-111400-
BIG ISLAND OF HAWAII INTERIOR AND SUMMMITS-

CITY           SKY/WX    TMP DP  RH WIND       PRES   REMARKS
BRADSHAW FIELD CLOUDY    43  24  47 SE3       30.24R
MK VISITOR CEN   N/A     46   3  17 NW3         N/A
MAUNA KEA*       N/A     39 -18   8 SW21        N/A  WCI  29
MAUNA LOA*       N/A     39  -8  13 MISG        N/A
MAUNA LOA 1*   NOT AVBL
PTA KIPUKA*      N/A     43  36  75 NW5         N/A
PTA RANGE 17*    N/A     48  36  61 W8          N/A
PTA WEST*        N/A     48  39  71 SE12G17     N/A
NENE CABIN*      N/A    N/A N/A N/A N6          N/A
AHUMOA*          N/A     50  32  50 E6          N/A
PTA PORTABLE*  NOT AVBL
PUU MALI*        N/A    N/A N/A N/A S8          N/A
$$

HIC003-111400-
NORTHWEST ISLANDS-

CITY           SKY/WX    TMP DP  RH WIND       PRES   REMARKS
MIDWAY ISLAND  CLOUDY    66  54  63 NW5       30.08F
MIDWAY NOS*      N/A     68 N/A N/A MISG      30.06S
FRENCH FRIGATE NOT AVBL
$$

PHZ110>124-180-111400-
BUOY REPORTS

STATION/POSITION TIME  TEMP    WIND        PRES    WAVE   SWELL
                       AIR SEA DIR/SP/G            HT/PER HT/DIR
                 (UTC) (F)     (DEG/KT/KT) (MB)    (FT/S) (FT/D)
BUOY 51001       1310   72 75  260/ 12/ 14 1014.0
BUOY 51101       1250   72 75  270/ 10/ 14 1014.7F   8/11   8/330
BUOY 51100       NOT AVBL
BUOY 51002       1310   77 78   80/ 10/ 14 1012.5
BUOY 51003       1250   73 78  180/  8/ 12 1013.6F   9/14   8/330
BUOY 51004       1310   76 79   90/ 12/ 17 1012.5
WAIMEA BAY#      1302      75                N/A    10/14   8/330
MOKAPU POINT#    1304      77                N/A     8/14   7/360
LANAI#           NOT AVBL
BARBERS PT 2#    NOT AVBL
PAUWELA#         1330      78                N/A    10/14   8/340
HILO#            1327      76                N/A    10/13   8/350
KANEOHE BAY#     NOT AVBL
KANEOHE BAY 2#   NOT AVBL
HANALEI#         1322      76                N/A    10/13   8/340
KAHULUI HARBOR   1312   68 77  140/  2/  3 1013.9
HONOLULU HARBOR  1312   71 78   CALM  /  1 1014.8
PEARL HARBOR#    1300      78                N/A     1/13   2/160
KILO NALU        NOT AVBL
HILO HARBOR      1312   65 76  200/  7/  9 1013.7
MOKUOLOE         1236   69 75  220/  1/  3 1014.5R
NAWILIWILI       1312   65 78  280/  4/  5 1014.7
WHOTS BUOY       NOT AVBL
BUOY 51028       NOT AVBL
$$

......................KEY........................................
  SKY/WX - SKY CONDITIONS/PRESENT WEATHER
  TMP    - TEMPERATURE IN FAHRENHEIT
  DWPT   - DEWPOINT IN FAHRENHEIT
  RH     - RELATIVE HUMIDITY IN PERCENT
  WIND   - DIRECTION AND SPEED /MPH FOR ISLANDS...KTS FOR BUOYS/
  PRES   - MEAN SEA LEVEL PRESSURE IN INCHES OF HG
  VSB    - VISIBILITY IN MILES
  HX     - HEAT INDEX
  WCI    - WIND CHILL INDEX
  VRB    - VARIABLE WIND DIRECTION
  N/A    - NOT AVAILABLE




USA.gov is the U.S. government's official web portal to all federal, state and local government web resources and services.